Find Kuiper-00028

NORAD ID: 63741 Int'l Des: 2025-088 Owner: KUIP Country: US Constellation: amazon-leo operational
LEOCIRCULAR

当前视图

正在加载3D地球...

About Kuiper-00028

Kuiper-00028 (NORAD 63741) is a amazon-leo constellation satellite launched Apr 28, 2025 by KUIP of US. It operates in LEO, CIRCULAR orbit with a mass of 490.00 kg.

关于 Kuiper-00028

正在加载描述...

即将过境

Passes for default location (London). Set your location on the main map for personalized predictions.

高度历史

Loading altitude history...

两行轨道根数

1 63741U 25088T 26170.93704293 .00000563 00000-0 10284-3 0 9999
2 63741 51.9020 0.9109 0000607 121.2739 238.8283 14.79928880 63208
Epoch: Jun 19, 2026 • Age: 53 hours

当前状态

高度 645.7 km
速度 7.53 km/s
星下点 -46.55°S, 29.71°W
发射日期 Apr 28, 2025
运行时间 1.1 years
类型 internet

技术详情

分类 Payload
质量 490.00 kg
干质量 490.00 kg
总质量 490.00 kg
长度 1.80 m
直径 0.70 m
跨度 5.00 m
形状 Box + 2 pan
制造商 KUIP
平台类型 Kuiper
阶段状态 In Orbit
所有者/国家 KUIP/US

Most Searched